Regional Weather Roundup
Issued by NWS

Home | Current Version | Previous Version | Text Only | Print | Product List | Glossary Off
Versions: 1 2 3 4 5 6 7 8 9 10 11 12 13 14 15 16 17 18 19 20 21 22 23 24 25 26 27 28 29 30 31 32 33 34 35 36 37 38 39 40 41 42 43 44 45 46 47 48 49 50

000
ASUS43 KFSD 241702
RWRSD

WEATHER ROUNDUP FOR SOUTH DAKOTA
NATIONAL WEATHER SERVICE SIOUX FALLS SD
1200 PM CDT SUN SEP 24 2017

NOTE: "FAIR" INDICATES FEW OR NO CLOUDS BELOW 12,000 FEET WITH NO
SIGNIFICANT WEATHER AND/OR OBSTRUCTIONS TO VISIBILITY.


SDZ001>005-009-010-012>017-241800-
NORTHWEST AND NORTH CENTRAL SOUTH DAKOTA

CITY           SKY/WX    TMP DP  RH WIND       PRES   REMARKS
BUFFALO          N/A     46  42  86 N10       30.01R
FAITH            N/A     47  46  97 N15       30.02R
MOBRIDGE       CLOUDY    52  49  89 N18G28    29.91F
$$

SDZ012>016-024>037-041>051-057-063-072>074-241800-
SOUTHWEST AND SOUTH CENTRAL SOUTH DAKOTA

CITY           SKY/WX    TMP DP  RH WIND       PRES   REMARKS
RAPID CTY ARPT CLOUDY    46  43  87 NW15      30.05R
PIERRE         CLOUDY    52  48  86 NW15      29.97R
CUSTER         CLOUDY    46  37  71 E7        30.03R
ELLSWORTH AFB  CLOUDY    46  46 100 N15       30.04
PHILIP         CLOUDY    50  48  93 N13       30.02R
PINE RIDGE     CLOUDY    47  46  97 N8        30.05R
SPEARFISH      LGT RAIN  43  43 100 NW10      30.07S
WINNER         CLOUDY    53  51  93 NW13      29.99R
$$

SDZ004>011-016>023-039-040-241800-
NORTHEAST SOUTH DAKOTA

CITY           SKY/WX    TMP DP  RH WIND       PRES   REMARKS
ABERDEEN       LGT RAIN  53  53 100 N10       29.89R
WATERTOWN      CLOUDY    63  61  93 W10       29.87R
BROOKINGS      PTSUNNY   73  66  78 SW16G22   29.88R
SISSETON         N/A     66  63  90 SW6       29.83S
$$

SDZ017-020-022-023-036>040-048>070-241800-
SOUTHEAST SOUTH DAKOTA

CITY           SKY/WX    TMP DP  RH WIND       PRES   REMARKS
SIOUX FALLS    CLOUDY    79  68  69 S22       29.87R
HURON          LGT RAIN  57  56  96 NW7       29.88S
CHAMBERLAIN    DRIZZLE   55  55 100 NW13      29.95R
MITCHELL       LGT RAIN  59  56  89 NW3       29.91R
YANKTON        CLOUDY    69  62  78 W7        29.89R
$$

ABBREVIATIONS USED IN REMARKS
   TC - TEMPERATURE IN CELSIUS
  WCI - WIND CHILL INDEX
   HX - HEAT INDEX
  VSB - VISIBILITY




USA.gov is the U.S. government's official web portal to all federal, state and local government web resources and services.